Simultaneous Nadir Overpasses (SNOs) Predictions

Prediction of SNOs between NOAA-20 and METOP-C Satellite Orbit:

Table of predicted SNOs for the next 14.0 days since TLE Epoch: 7/4/2020
Index Date (NOAA-20) Time (NOAA-20) Lat,Lon (NOAA-20) SZA (NOAA-20 ) Date (METOP-C) Time (METOP-C) Lat,Lon (METOP-C) SZA (METOP-C ) Distance(km) Time Diff (sec)
1 07/04/2020 05:10:53 72.68, 94.22 50.02 07/04/2020 05:11:38 72.67, 94.16 50.00 2.16 45
2 07/04/2020 06:01:37 -72.68, -98.47 129.98 07/04/2020 06:02:20 -72.67, -98.51 129.99 1.51 43
3 07/04/2020 06:52:23 72.68, 68.83 50.03 07/04/2020 06:52:59 72.70, 68.88 50.04 2.38 36
4 07/04/2020 07:43:07 -72.69,-123.86 129.96 07/04/2020 07:43:41 -72.70,-123.79 129.96 2.90 34
5 07/04/2020 08:33:53 72.69, 43.44 50.05 07/04/2020 08:34:21 72.68, 43.50 50.02 2.23 28
6 07/04/2020 09:24:37 -72.69,-149.25 129.95 07/04/2020 09:25:03 -72.68,-149.17 129.97 2.88 26
7 07/04/2020 10:15:22 72.65, 18.16 50.00 07/04/2020 10:15:43 72.66, 18.11 50.01 1.93 21
8 07/04/2020 11:06:06 -72.65,-174.53 129.99 07/04/2020 11:06:25 -72.66,-174.56 129.99 1.36 19
9 07/04/2020 11:56:52 72.65, -7.23 50.02 07/04/2020 11:57:05 72.64, -7.27 50.00 2.36 13
10 07/04/2020 12:47:36 -72.66, 160.08 129.98 07/04/2020 12:47:47 -72.64, 160.06 130.00 2.07 11
11 07/04/2020 13:38:22 72.66, -32.62 50.03 07/04/2020 13:38:26 72.67, -32.55 50.03 2.34 4
12 07/04/2020 14:29:06 -72.66, 134.69 129.96 07/04/2020 14:29:08 -72.67, 134.78 129.97 3.03 2
13 07/04/2020 15:19:51 72.62, -57.90 49.99 07/04/2020 15:19:48 72.64, -57.93 50.02 3.34 3
14 07/04/2020 16:10:35 -72.62, 109.41 130.01 07/04/2020 16:10:30 -72.65, 109.40 129.98 3.12 5
15 07/04/2020 17:01:21 72.62, -83.29 50.00 07/04/2020 17:01:10 72.62, -83.32 50.01 0.88 11
16 07/04/2020 17:52:05 -72.63, 84.02 129.99 07/04/2020 17:51:52 -72.63, 84.02 129.99 0.15 13
17 07/04/2020 18:42:51 72.63,-108.68 50.02 07/04/2020 18:42:32 72.60,-108.70 50.00 3.13 19
18 07/04/2020 19:33:35 -72.63, 58.63 129.98 07/04/2020 19:33:14 -72.61, 58.63 130.00 3.10 21
19 07/04/2020 20:24:21 72.64,-134.07 50.03 07/04/2020 20:23:53 72.63,-133.98 50.03 2.94 28
20 07/04/2020 21:15:04 -72.59, 33.35 130.02 07/04/2020 21:14:36 -72.58, 33.25 130.01 3.30 28
21 07/04/2020 22:05:50 72.59,-159.35 49.99 07/04/2020 22:05:15 72.61,-159.36 50.02 2.09 35
22 07/04/2020 22:56:34 -72.60, 7.96 130.01 07/04/2020 22:55:57 -72.61, 7.97 129.98 2.01 37
23 07/04/2020 23:47:20 72.60, 175.26 50.01 07/04/2020 23:46:37 72.59, 175.26 50.01 1.08 43
24 07/05/2020 00:38:04 -72.60, -17.43 129.99 07/05/2020 00:37:19 -72.59, -17.41 129.99 1.23 45
25 07/05/2020 01:28:50 72.61, 149.87 50.02 07/05/2020 01:27:58 72.62, 149.98 50.04 3.71 52
26 07/05/2020 02:19:33 -72.56, -42.71 130.03 07/05/2020 02:18:41 -72.57, -42.80 130.00 3.10 52
27 07/05/2020 03:10:19 72.56, 124.59 49.98 07/05/2020 03:09:21 72.55, 124.49 49.98 3.69 58
28 07/05/2020 04:01:03 -72.56, -68.10 130.02 07/05/2020 04:00:03 -72.55, -68.18 130.01 3.10 60
29 07/05/2020 04:51:49 72.57, 99.20 49.99 07/05/2020 04:50:42 72.58, 99.21 50.02 0.97 67
30 07/05/2020 05:42:33 -72.57, -93.49 130.00 07/05/2020 05:41:24 -72.58, -93.46 129.98 1.31 69
31 07/05/2020 06:33:19 72.57, 73.81 50.01 07/05/2020 06:32:04 72.56, 73.83 50.00 2.24 75
32 07/05/2020 07:24:01 -72.48,-118.67 130.10 07/05/2020 07:22:47 -72.51,-118.94 130.04 9.71 74
33 07/05/2020 08:14:43 72.28, 49.04 49.69 07/05/2020 08:13:31 72.28, 47.94 49.77 37.16 72
34 07/05/2020 09:05:26 -72.23,-143.56 130.37 07/05/2020 09:04:14 -72.23,-144.83 130.27 43.17 72
35 07/05/2020 09:56:07 71.97, 24.24 49.37 07/05/2020 09:54:59 71.95, 21.97 49.49 78.28 68
36 07/05/2020 10:46:49 -71.88,-168.26 130.74 07/05/2020 10:45:42 -71.90,-170.79 130.55 87.56 67
